Weather in Maykor

Russia / Perm Krai     59°00′10″N   55°52′54″E
temp.,
°C
wind,
m/s
gust,
m/s
humid.,
%
clouds,
%
prec.,
mm/h
press.,
hPa
HPBL,
m
28 february, sun
sun2823:00−18e5118998 0.1 1012435
02:00−20e499290 0.0 1012278
05:00−21ene489292 0.0 1012235
08:00−22ene479191 0.0 1012191
11:00−19ene488782 0.0 1012383
14:00−14e478597 0.0 1012733
17:00−13ene369099 0.1 1013483
20:00−16ene379193 0.1 1014146
1 march, mon
mon123:00−19ene339288 0.1 101667
02:00−20ne239293 0.0 101735
05:00−21ne239389 0.0 101820
08:00−22nne229356 0.0 101920
11:00−18ene018828 0.0 1019118
14:00−14s12863 0.0 1017256
17:00−14sse239112 0.0 1016222
20:00−17ssw339562 0.0 101446
2 march, tue
tue223:00−17ssw379649 0.0 1013148
02:00−16s5109375 0.0 1009342
05:00−15s5119287 0.1 1006408
08:00−14s61194100 0.8 1003510
11:00−14s61094100 1.8 1001554
14:00−13s61093100 0.9 999576
17:00−11s5993100 1.6 998543
20:00−11s4895100 0.6 998357
3 march, wed
wed323:00−11s3795100 1.2 998271
02:00−12s2396100 0.1 99776
05:00−13s2396100 0.1 99729
08:00−13s239697 0.1 99649
11:00−9s249495 0.4 996188
14:00−4wsw259198 0.2 996500
17:00−5wsw378999 0.4 996431
20:00−6wnw4109399 0.3 997510
4 march, thu
thu423:00−11wnw479483 0.3 999125
02:00−13w359610 0.0 99982
05:00−14w34968 0.0 100081
08:00−15wsw349745 0.0 100074
11:00−10sw249468 0.1 999210
14:00−7ssw368880 0.0 997478
17:00−6s488988 0.1 996593
20:00−7sse51293100 0.1 993563